Regional Weather Roundup
Issued by NWS

Home | Current Version | Previous Version | Graphics & Text | Print | Product List | Glossary On
Versions: 1 2 3 4 5 6 7 8 9 10 11 12 13 14 15 16 17 18 19 20 21 22 23 24 25 26 27 28 29 30 31 32 33 34 35 36 37 38 39 40 41 42 43 44 45 46 47 48 49 50
000
ASUS45 KABQ 230801
RWRNM
NEW MEXICO REGIONAL WEATHER ROUNDUP
NATIONAL WEATHER SERVICE ALBUQUERQUE NM
200 AM MDT SAT JUL 23 2016

NOTE: "FAIR" MEANS FEW OR NO CLOUDS BELOW 12,000 FEET AGL WITH NO
       SIGNIFICANT WEATHER OR OBSTRUCTIONS TO VISION.

      THIS PRODUCT IS RELEASED AS TWO VERSIONS.  ONE VERSION NEAR
      THE TOP OF THE HOUR CONTAINING PRELIMINARY DATA FROM ALBUQUERQUE
      AND OTHER STATIONS.  A FINAL VERSION WITH ADDITIONAL DATA IS
      ISSUED ABOUT 10 MINUTES AFTER THE HOUR.

NMZ501-503-504-510>518-230900-
NORTHWEST PLATEAU/NORTHCENTRAL MOUNTAINS

CITY           SKY/WX    TMP DP  RH WIND       PRES   REMARKS
FARMINGTON     FAIR      74  50  42 SE5       30.20F
LOS ALAMOS     FAIR      74  42  32 N15G23    30.34F
SANTA FE       FAIR      78  44  29 E9        30.24S
TAOS           MOCLDY    64  45  48 N7        30.37R
ANGEL FIRE     FAIR      61  43  51 S3        30.44S

$$
NMZ402-403-502-505>509-230900-
WESTCENTRAL MOUNTAINS/SOUTHWEST MOUNTAINS

CITY           SKY/WX    TMP DP  RH WIND       PRES   REMARKS
GALLUP         FAIR      65  50  58 SE3       30.31F
GRANTS         FAIR      68  49  50 NW9       30.34S
SILVER CITY    FAIR      76  47  36 NW12      30.18F

$$
NMZ407-409-411-412-230900-
SOUTHERN DESERTS

CITY           SKY/WX    TMP DP  RH WIND       PRES   REMARKS
LORDSBURG      FAIR      77  50  38 NW6       30.10F
DEMING         FAIR      80  48  32 CALM      30.07F
LAS CRUCES     FAIR      79  39  24 SE3       30.11F
ALAMOGORDO     FAIR      81  41  24 S6        30.08F
T OR C         MOCLDY    83  48  29 N7        30.13S

$$
NMZ519>523-230900-
CENTRAL VALLEYS/CENTRAL HIGHLANDS

CITY           SKY/WX    TMP DP  RH WIND       PRES   REMARKS
ALBUQUERQUE    FAIR      79  51  37 N13       30.20F
DOUBLE EAGLE   FAIR      74  53  46 NW21G28   30.23F
MORIARTY ARPT  FAIR      68  40  35 S5        30.25F
CLINES CORNERS FAIR      67  43  41 S12       30.32F
BELEN          FAIR      76  45  32 N9        30.19F
SOCORRO        FAIR      82  45  26 NW10      30.16S

$$
NMZ524>526-539-540-230900-
SOUTHCENTRAL MOUNTAINS

CITY           SKY/WX    TMP DP  RH WIND       PRES   REMARKS
RUIDOSO          N/A     68  41  37 CALM      30.34F

$$
NMZ527>531-230900-
NORTHEAST HIGHLANDS/NORTHEAST PLAINS

CITY           SKY/WX    TMP DP  RH WIND       PRES   REMARKS
LAS VEGAS      FAIR      68  44  42 SW12      30.29F
RATON          FAIR     N/A N/A N/A S5        30.23F
CLAYTON        FAIR      76  48  37 SW13      30.13F

$$
NMZ532>537-230900-
EASTCENTRAL PLAINS

CITY           SKY/WX    TMP DP  RH WIND       PRES   REMARKS
TUCUMCARI      FAIR      76  46  34 W9        30.07S
CANNON AFB     FAIR      71  51  48 S3        30.12F
CLOVIS AIRPORT FAIR      66  48  52 S5        30.12S

$$
NMZ028-029-538-230900-
SOUTHEAST PLAINS

CITY           SKY/WX    TMP DP  RH WIND       PRES   REMARKS
ROSWELL        FAIR      76  47  35 S8        30.07F
ARTESIA        FAIR      77  50  38 S12       30.07F
CARLSBAD       FAIR      80  52  37 S12       30.05F
HOBBS          FAIR      73  52  46 S9        30.11F


$$




USA.gov is the U.S. government's official web portal to all federal, state and local government web resources and services.